{"data":{"norad_id":58367,"intl_designator":"2023-177S","name":"STARLINK-30891","alt_names":[],"object_type":"PAYLOAD","status":"ACTIVE","operator":null,"country":"US","launch_date":"2023-11-18","launch_site_code":"AFETR","launch_vehicle":null,"mission":null,"orbit_class":"UNKNOWN","rcs_meters":null,"size_class":null,"mass_kg":null,"dimensions":null,"purposes":["comms"],"wikipedia_slug":null,"has_3d_model":false,"image_url":null,"decayed_at":null,"tle_current":{"epoch":"2026-05-24T19:01:02.130528Z","epoch_age_seconds":88865,"freshness":"FRESH","line1":"1 58367U 23177S   26144.79238577  .00000700  00000+0  34971-4 0  9998","line2":"2 58367  42.9997 281.0490 0001139 266.2102  93.8619 15.27576090139807","mean_motion":15.2757609,"eccentricity":0.0001139,"inclination_deg":42.9997,"raan_deg":281.049,"arg_perigee_deg":266.2102,"mean_anomaly_deg":93.8619,"bstar":3.4971e-5,"rev_number":13980,"period_min":94.266989999824,"perigee_km":482.27931358136,"apogee_km":483.84229444112,"semimajor_km":6861.1978040112,"source":"CELESTRAK","updated_at":"2026-05-25T13:38:18.609904Z"}}}